La Grange, TX

5:18 PM CST on November 12, 2019 (GMT -0600)
La Grange

Weather History for K3T5 - August, 2019

Change the Weather History Date:

Tuesday, August 13, 2019

  Actual Average (WUND) Record (WUND)
Temperature  
Mean Temperature 90 °F -  
Max Temperature 102 °F - - (-1)
Min Temperature 78 °F - - (-1)
Cooling Degree Days 25    
Growing Degree Days 40 (Base 50)    
Moisture  
Dew Point 76 °F    
Average Humidity 69    
Maximum Humidity 100    
Minimum Humidity 34    
Precipitation  
Precipitation 0.00 in - - ()
Sea Level Pressure  
Sea Level Pressure 29.89 in    
Wind  
Wind Speed 3 mph (South)    
Max Wind Speed 7 mph    
Max Gust Speed -    
Visibility 9 miles    
Events      
Averages and records for this station are not official NWS values.
T = Trace of Precipitation, MM = Missing Value Source: NWS Daily Summary

Daily Weather History Graph

Daily Weather History Graph

Search for Another Location

Airport or City:

Astronomy

Aug. 13, 2019 Rise Set
Actual Time 6:54 AM CDT 8:10 PM CDT
Civil Twilight 6:28 AM CDT 8:36 PM CDT
Nautical Twilight 5:58 AM CDT 9:05 PM CDT
Astronomical Twilight 5:27 AM CDT 9:37 PM CDT
Moon 7:18 PM CDT (8/13) 5:06 AM CDT (8/13)
Length of Visible Light 14h 07m
Length of Day
13h 16m
Waxing Gibbous, 97% of the Moon is Illuminated
Aug 13
Waxing Gibbous
Aug 15
Full
Aug 23
Last Quarter
Aug 30
New
Sep 5
First Quarter

Hourly Weather History & Observations

Time (CDT) Temp. Heat Index Dew Point Humidity Pressure Visibility Wind Dir Wind Speed Gust Speed Precip Events Conditions
12:15 AM 83.5 °F 95.1 °F 79.3 °F 87% 29.88 in 10.0 mi South 4.6 mph - N/A   Clear
12:35 AM 83.3 °F 95.3 °F 79.7 °F 89% 29.89 in 10.0 mi South 4.6 mph - N/A   Clear
12:55 AM 83.1 °F 95.1 °F 80.1 °F 90% 29.89 in 10.0 mi South 4.6 mph - N/A   Mostly Cloudy
1:15 AM 82.8 °F 94.9 °F 80.6 °F 93% 29.89 in 10.0 mi South 3.5 mph - N/A   Mostly Cloudy
1:35 AM 82.4 °F 94.0 °F 80.6 °F 94% 29.89 in 10.0 mi Calm Calm - N/A   Mostly Cloudy
1:55 AM 81.7 °F 92.4 °F 80.8 °F 97% 29.89 in 10.0 mi Calm Calm - N/A   Mostly Cloudy
2:15 AM 81.3 °F 91.7 °F 81.1 °F 99% 29.88 in 10.0 mi Calm Calm - N/A   Mostly Cloudy
2:35 AM 81.0 °F 90.6 °F 81.0 °F 100% 29.89 in 10.0 mi Calm Calm - N/A   Overcast
2:55 AM 81.0 °F 90.6 °F 81.0 °F 100% 29.89 in 10.0 mi Calm Calm - N/A   Overcast
3:15 AM 81.0 °F 90.6 °F 81.0 °F 100% 29.88 in 10.0 mi Calm Calm - N/A   Overcast
3:35 AM 81.0 °F 90.6 °F 81.0 °F 100% 29.88 in 10.0 mi Calm Calm - N/A   Overcast
3:55 AM 80.8 °F 90.0 °F 80.8 °F 100% 29.88 in 10.0 mi Calm Calm - N/A   Overcast
4:15 AM 80.8 °F 90.0 °F 80.8 °F 100% 29.88 in 10.0 mi Calm Calm - N/A   Overcast
4:35 AM 80.6 °F 89.3 °F 80.6 °F 100% 29.88 in 10.0 mi Calm Calm - N/A   Overcast
4:55 AM 80.2 °F 88.0 °F 80.2 °F 100% 29.88 in 10.0 mi Calm Calm - N/A   Overcast
5:15 AM 80.1 °F 87.4 °F 80.1 °F 100% 29.89 in 10.0 mi Calm Calm - N/A   Overcast
5:35 AM 79.7 °F - 79.7 °F 100% 29.89 in 7.0 mi Calm Calm - N/A   Scattered Clouds
6:15 AM 79.2 °F - 79.2 °F 100% 29.90 in 5.0 mi Calm Calm - N/A   Scattered Clouds
6:35 AM 78.8 °F - 78.8 °F 100% 29.91 in 5.0 mi Calm Calm - N/A   Clear
6:55 AM 78.3 °F - 78.3 °F 100% 29.91 in 5.0 mi Calm Calm - N/A   Scattered Clouds
7:15 AM 78.3 °F - 78.3 °F 100% 29.92 in 4.0 mi Calm Calm - N/A   Clear
7:35 AM 79.0 °F - 79.0 °F 100% 29.91 in 4.0 mi Calm Calm - N/A   Scattered Clouds
7:55 AM 79.7 °F - 79.7 °F 100% 29.92 in 5.0 mi Calm Calm - N/A   Mostly Cloudy
8:15 AM 80.8 °F 90.0 °F 80.8 °F 100% 29.92 in 7.0 mi Calm Calm - N/A   Scattered Clouds
8:35 AM 82.2 °F 95.1 °F 81.9 °F 99% 29.93 in 10.0 mi South 4.6 mph - N/A   Scattered Clouds
8:55 AM 84.2 °F 97.4 °F 79.9 °F 87% 29.93 in 10.0 mi SSW 3.5 mph - N/A   Mostly Cloudy
9:15 AM 84.4 °F 95.4 °F 78.1 °F 81% 29.93 in 10.0 mi SSW 4.6 mph - N/A   Mostly Cloudy
9:35 AM 86.4 °F 98.8 °F 78.1 °F 76% 29.93 in 10.0 mi South 4.6 mph - N/A   Mostly Cloudy
9:55 AM 88.3 °F 100.6 °F 76.8 °F 69% 29.93 in 10.0 mi SW 4.6 mph - N/A   Mostly Cloudy
10:15 AM 88.0 °F 99.1 °F 76.3 °F 68% 29.93 in 10.0 mi South 3.5 mph - N/A   Mostly Cloudy
10:35 AM 89.8 °F 102.1 °F 76.5 °F 65% 29.93 in 10.0 mi South 3.5 mph - N/A   Mostly Cloudy
10:55 AM 90.3 °F 102.9 °F 76.8 °F 64% 29.93 in 10.0 mi South 4.6 mph - N/A   Mostly Cloudy
11:15 AM 92.1 °F 103.0 °F 75.0 °F 57% 29.93 in 10.0 mi South 5.8 mph - N/A   Scattered Clouds
11:35 AM 92.8 °F 105.5 °F 76.1 °F 58% 29.93 in 10.0 mi SSW 4.6 mph - N/A   Clear
11:55 AM 93.6 °F 105.2 °F 75.2 °F 55% 29.93 in 10.0 mi Calm Calm - N/A   Scattered Clouds
12:15 PM 94.5 °F 103.9 °F 73.0 °F 50% 29.92 in 10.0 mi SW 3.5 mph - N/A   Clear
12:35 PM 95.5 °F 106.5 °F 73.9 °F 50% 29.91 in 10.0 mi Calm Calm - N/A   Clear
12:55 PM 96.3 °F 106.0 °F 73.0 °F 47% 29.91 in 10.0 mi SSW 3.5 mph - N/A   Clear
1:15 PM 96.6 °F 106.9 °F 73.4 °F 47% 29.91 in 10.0 mi SSE 4.6 mph - N/A   Clear
1:35 PM 97.0 °F 105.5 °F 71.8 °F 44% 29.90 in 5.0 mi SSE 4.6 mph - N/A   Haze
1:55 PM 96.8 °F 106.6 °F 72.9 °F 46% 29.89 in 7.0 mi SSW 3.5 mph - N/A   Clear
2:15 PM 98.1 °F 106.5 °F 71.1 °F 42% 29.89 in 10.0 mi Calm Calm - N/A   Clear
2:35 PM 99.5 °F 108.1 °F 71.4 °F 40% 29.88 in 10.0 mi Calm Calm - N/A   Clear
2:55 PM 99.9 °F 108.9 °F 71.4 °F 40% 29.88 in 10.0 mi SSE 3.5 mph - N/A   Clear
3:15 PM 100.2 °F 108.9 °F 71.2 °F 39% 29.87 in 10.0 mi SSE 4.6 mph - N/A   Clear
3:35 PM 100.8 °F 107.8 °F 69.3 °F 36% 29.86 in 10.0 mi ESE 3.5 mph - N/A   Clear
3:55 PM 100.6 °F 108.9 °F 70.9 °F 38% 29.86 in 10.0 mi Calm Calm - N/A   Clear
4:15 PM 100.9 °F 109.7 °F 70.9 °F 38% 29.85 in 10.0 mi ESE 3.5 mph - N/A   Clear
4:35 PM 100.8 °F 107.0 °F 68.9 °F 35% 29.85 in 10.0 mi East 3.5 mph - N/A   Clear
4:55 PM 101.8 °F 109.3 °F 69.8 °F 35% 29.84 in 10.0 mi South 5.8 mph - N/A   Clear
5:15 PM 101.8 °F 108.5 °F 68.7 °F 34% 29.84 in 10.0 mi SSE 3.5 mph - N/A   Clear
5:35 PM 101.1 °F 107.0 °F 68.4 °F 34% 29.84 in 10.0 mi Calm Calm - N/A   Clear
5:55 PM 102.0 °F 109.6 °F 69.8 °F 35% 29.84 in 10.0 mi SE 3.5 mph - N/A   Clear
6:15 PM 101.3 °F 108.9 °F 69.6 °F 36% 29.83 in 10.0 mi SSE 3.5 mph - N/A   Clear
6:35 PM 101.3 °F 108.9 °F 70.0 °F 36% 29.83 in 10.0 mi SE 3.5 mph - N/A   Scattered Clouds
6:55 PM 100.0 °F 108.6 °F 70.7 °F 39% 29.83 in 10.0 mi SE 3.5 mph - N/A   Clear
7:15 PM 99.1 °F 108.1 °F 71.6 °F 41% 29.83 in 10.0 mi SE 3.5 mph - N/A   Clear
7:35 PM 97.7 °F 106.4 °F 71.4 °F 43% 29.83 in 10.0 mi Calm Calm - N/A   Clear
7:55 PM 96.3 °F 103.9 °F 71.1 °F 44% 29.84 in 10.0 mi SSE 3.5 mph - N/A   Clear
8:15 PM 95.0 °F 103.8 °F 72.7 °F 48% 29.85 in 10.0 mi SSE 3.5 mph - N/A   Clear
8:35 PM 93.4 °F 105.5 °F 75.4 °F 56% 29.86 in 10.0 mi South 6.9 mph - N/A   Clear
8:55 PM 92.1 °F 104.3 °F 75.9 °F 59% 29.87 in 10.0 mi South 5.8 mph - N/A   Clear
9:15 PM 90.9 °F 102.4 °F 75.7 °F 61% 29.88 in 10.0 mi South 5.8 mph - N/A   Clear
9:55 PM 89.2 °F 99.5 °F 75.4 °F 63% 29.90 in 10.0 mi South 5.8 mph - N/A   Clear
10:15 PM 88.5 °F 98.8 °F 75.2 °F 65% 29.91 in 10.0 mi South 5.8 mph - N/A   Clear
10:35 PM 87.8 °F 98.6 °F 75.9 °F 68% 29.91 in 10.0 mi South 5.8 mph - N/A   Clear
10:55 PM 86.9 °F 97.8 °F 76.6 °F 71% 29.92 in 10.0 mi South 4.6 mph - N/A   Clear
11:15 PM 86.0 °F 96.9 °F 77.0 °F 74% 29.92 in 10.0 mi South 4.6 mph - N/A   Clear
11:55 PM 84.7 °F 95.2 °F 77.4 °F 78% 29.92 in 10.0 mi SSW 5.8 mph - N/A   Clear